TimeEDT,TemperatureF,Dew PointF,Humidity,Sea Level PressureIn,VisibilityMPH,Wind Direction,Wind SpeedMPH,Gust SpeedMPH,PrecipitationIn,Events,Conditions,WindDirDegrees,DateUTC
12:53 AM,78.1,70.0,76,30.08,10.0,ESE,18.4,-,N/A,,Clear,110,2013-05-31 04:53:00
1:53 AM,78.1,71.1,79,30.06,10.0,ESE,18.4,-,N/A,,Clear,110,2013-05-31 05:53:00
2:53 AM,78.1,71.1,79,30.04,10.0,ESE,16.1,-,N/A,,Clear,110,2013-05-31 06:53:00
3:53 AM,77.0,70.0,79,30.03,10.0,ESE,15.0,-,N/A,,Clear,110,2013-05-31 07:53:00
4:53 AM,77.0,70.0,79,30.03,10.0,ESE,17.3,-,N/A,,Clear,110,2013-05-31 08:53:00
5:53 AM,77.0,70.0,79,30.03,10.0,ESE,17.3,-,N/A,,Clear,110,2013-05-31 09:53:00
6:53 AM,75.9,70.0,82,30.04,10.0,ESE,17.3,-,N/A,,Clear,120,2013-05-31 10:53:00
7:53 AM,77.0,70.0,79,30.05,10.0,ESE,16.1,-,N/A,,Overcast,120,2013-05-31 11:53:00
8:19 AM,78.1,70.0,76,30.06,10.0,SE,17.3,-,N/A,,Overcast,130,2013-05-31 12:19:00
8:35 AM,79.0,71.1,77,30.06,10.0,SE,17.3,-,N/A,,Overcast,130,2013-05-31 12:35:00
8:53 AM,79.0,70.0,74,30.06,10.0,ESE,18.4,-,N/A,,Overcast,120,2013-05-31 12:53:00
9:53 AM,82.0,71.1,69,30.07,10.0,SE,17.3,-,N/A,,Mostly Cloudy,130,2013-05-31 13:53:00
10:13 AM,82.0,71.1,69,30.07,10.0,SE,13.8,-,N/A,,Overcast,130,2013-05-31 14:13:00
10:53 AM,82.9,71.1,67,30.07,10.0,SE,13.8,-,N/A,,Overcast,130,2013-05-31 14:53:00
11:53 AM,84.0,71.1,65,30.07,10.0,ESE,9.2,-,N/A,,Mostly Cloudy,120,2013-05-31 15:53:00
12:53 PM,82.9,72.0,69,30.06,10.0,SE,6.9,-,0.00,,Overcast,140,2013-05-31 16:53:00
1:53 PM,82.9,72.0,69,30.04,10.0,SSE,5.8,-,0.00,,Unknown,150,2013-05-31 17:53:00
2:53 PM,88.0,72.0,59,30.03,10.0,Calm,Calm,-,N/A,,Overcast,0,2013-05-31 18:53:00
3:19 PM,80.1,73.9,81,30.03,9.0,SSE,11.5,-,0.00,Rain,Light Rain,160,2013-05-31 19:19:00
3:28 PM,80.1,73.9,81,30.04,1.8,SE,9.2,-,0.08,Rain,Rain,130,2013-05-31 19:28:00
3:43 PM,78.1,73.9,87,30.03,0.8,SSE,9.2,-,0.29,Rain,Heavy Rain,160,2013-05-31 19:43:00
3:53 PM,78.1,73.0,84,30.03,1.0,Variable,4.6,-,0.42,Rain,Heavy Rain,0,2013-05-31 19:53:00
4:01 PM,78.1,73.0,84,30.02,1.2,WNW,3.5,-,0.06,Rain,Heavy Rain,300,2013-05-31 20:01:00
4:09 PM,78.1,73.0,84,30.02,3.0,WNW,6.9,-,0.07,Rain,Light Rain,290,2013-05-31 20:09:00
4:53 PM,81.0,73.9,79,30.02,10.0,SSE,9.2,-,0.07,,Overcast,150,2013-05-31 20:53:00
5:53 PM,81.0,75.0,82,30.00,10.0,SE,17.3,-,0.01,,Overcast,130,2013-05-31 21:53:00
6:53 PM,82.9,73.0,72,30.01,10.0,SE,13.8,-,N/A,,Clear,130,2013-05-31 22:53:00
7:53 PM,81.0,72.0,74,30.01,10.0,SE,17.3,-,N/A,,Clear,130,2013-05-31 23:53:00
8:53 PM,80.1,73.0,79,30.03,10.0,ESE,15.0,-,N/A,,Overcast,120,2013-06-01 00:53:00
9:53 PM,80.1,73.9,81,30.04,10.0,ESE,12.7,-,N/A,,Scattered Clouds,120,2013-06-01 01:53:00
10:53 PM,81.0,71.1,72,30.06,10.0,ESE,15.0,-,N/A,,Mostly Cloudy,110,2013-06-01 02:53:00
11:53 PM,79.0,72.0,79,30.06,10.0,ESE,18.4,-,N/A,,Clear,110,2013-06-01 03:53:00